• In Schweiz
  • Länderverzeichnis
  • Für 7 Tage
  • Wassertemperatur
  • Satellitenkarten
  • Wetterkarte
  • Widgets
  • user-avatar
    Anmelden

    Stündliche Wetter Serhiivka

    Heute, 21 April, Samstag

    Zeit Temperatur Niederschläge Wind Luftdruck Luftfeuchtigkeit
    00:00 +11°C° 0 mm 3 m/S 750 mmHg 66%
    01:00 +10°C° 0 mm 3 m/S 750 mmHg 68%
    02:00 +10°C° 0 mm 2 m/S 750 mmHg 70%
    03:00 +9°C° 0 mm 2 m/S 750 mmHg 72%
    04:00 +9°C° 0 mm 2 m/S 749 mmHg 74%
    05:00 +8°C° 0 mm 2 m/S 749 mmHg 76%
    06:00 +10°C° 0 mm 3 m/S 749 mmHg 71%
    07:00 +12°C° 0 mm 3 m/S 749 mmHg 66%
    08:00 +13°C° 0 mm 3 m/S 749 mmHg 61%
    09:00 +16°C° 0 mm 3 m/S 749 mmHg 55%
    10:00 +17°C° 0 mm 4 m/S 748 mmHg 50%
    11:00 +19°C° 0 mm 4 m/S 748 mmHg 45%
    12:00 +20°C° 0 mm 5 m/S 747 mmHg 43%
    13:00 +20°C° 0 mm 5 m/S 747 mmHg 42%
    14:00 +21°C° 0 mm 6 m/S 746 mmHg 40%
    15:00 +21°C° 0 mm 6 m/S 745 mmHg 41%
    16:00 +21°C° 0 mm 6 m/S 744 mmHg 42%
    17:00 +21°C° 0 mm 6 m/S 744 mmHg 43%
    18:00 +20°C° 0 mm 6 m/S 743 mmHg 46%
    19:00 +19°C° 0 mm 6 m/S 743 mmHg 49%
    20:00 +17°C° 0 mm 5 m/S 743 mmHg 51%
    21:00 +17°C° 0 mm 5 m/S 742 mmHg 56%
    22:00 +16°C° 0 mm 5 m/S 742 mmHg 60%
    23:00 +16°C° 0 mm 6 m/S 742 mmHg 64%

    Morgen, 22 April, Sonntag

    Zeit Temperatur Niederschläge Wind Luftdruck Luftfeuchtigkeit
    00:00 +15°C° 0 mm 5 m/S 743 mmHg 66%
    01:00 +14°C° 0 mm 5 m/S 743 mmHg 67%
    02:00 +13°C° 0 mm 4 m/S 743 mmHg 69%
    03:00 +12°C° 0 mm 4 m/S 743 mmHg 67%
    04:00 +11°C° 0 mm 4 m/S 744 mmHg 65%
    05:00 +10°C° 0 mm 4 m/S 744 mmHg 63%
    06:00 +10°C° 0 mm 5 m/S 744 mmHg 60%
    07:00 +12°C° 0 mm 5 m/S 745 mmHg 56%
    08:00 +13°C° 0 mm 5 m/S 745 mmHg 53%
    09:00 +14°C° 0 mm 5 m/S 745 mmHg 50%
    10:00 +15°C° 0 mm 5 m/S 745 mmHg 46%
    11:00 +16°C° 0 mm 5 m/S 745 mmHg 43%
    12:00 +17°C° 0 mm 6 m/S 745 mmHg 41%
    13:00 +17°C° 0 mm 6 m/S 745 mmHg 40%
    14:00 +19°C° 0 mm 6 m/S 744 mmHg 38%
    15:00 +17°C° 0 mm 6 m/S 744 mmHg 39%
    16:00 +17°C° 0 mm 6 m/S 744 mmHg 39%
    17:00 +17°C° 0 mm 6 m/S 744 mmHg 40%
    18:00 +15°C° 0 mm 5 m/S 745 mmHg 44%
    19:00 +14°C° 0 mm 4 m/S 745 mmHg 49%
    20:00 +12°C° 0 mm 3 m/S 745 mmHg 54%
    21:00 +12°C° 0 mm 3 m/S 745 mmHg 55%
    22:00 +12°C° 0 mm 3 m/S 745 mmHg 57%
    23:00 +11°C° 0 mm 3 m/S 745 mmHg 59%

    übermorgen, 23 April, Montag

    Zeit Temperatur Niederschläge Wind Luftdruck Luftfeuchtigkeit
    00:00 +11°C° 0 mm 3 m/S 745 mmHg 60%
    01:00 +10°C° 0 mm 3 m/S 745 mmHg 62%
    02:00 +10°C° 0 mm 3 m/S 745 mmHg 63%
    03:00 +10°C° 0 mm 3 m/S 745 mmHg 65%
    04:00 +9°C° 0 mm 3 m/S 745 mmHg 67%
    05:00 +9°C° 0 mm 3 m/S 745 mmHg 68%
    06:00 +10°C° 0 mm 3 m/S 745 mmHg 65%
    07:00 +12°C° 0 mm 3 m/S 745 mmHg 63%
    08:00 +13°C° 0 mm 3 m/S 745 mmHg 60%
    09:00 +14°C° 0 mm 3 m/S 746 mmHg 53%
    10:00 +17°C° 0 mm 3 m/S 746 mmHg 47%
    11:00 +18°C° 0 mm 3 m/S 746 mmHg 41%
    12:00 +18°C° 0 mm 3 m/S 746 mmHg 41%
    13:00 +18°C° 0 mm 3 m/S 745 mmHg 41%
    14:00 +18°C° 0 mm 3 m/S 745 mmHg 41%
    15:00 +18°C° 0 mm 3 m/S 745 mmHg 42%
    16:00 +18°C° 0 mm 2 m/S 745 mmHg 42%
    17:00 +18°C° 0 mm 2 m/S 745 mmHg 42%
    18:00 +17°C° 0 mm 2 m/S 745 mmHg 47%
    19:00 +15°C° 0 mm 2 m/S 745 mmHg 51%
    20:00 +14°C° 0 mm 2 m/S 745 mmHg 56%
    21:00 +13°C° 0 mm 2 m/S 745 mmHg 58%
    22:00 +13°C° 0 mm 2 m/S 745 mmHg 60%
    23:00 +11°C° 0 mm 3 m/S 745 mmHg 61%

    24 April, Dienstag

    Zeit Temperatur Niederschläge Wind Luftdruck Luftfeuchtigkeit
    00:00 +11°C° 0 mm 3 m/S 745 mmHg 62%
    01:00 +11°C° 0 mm 3 m/S 745 mmHg 63%
    02:00 +10°C° 0 mm 3 m/S 745 mmHg 64%
    03:00 +11°C° 0 mm 4 m/S 744 mmHg 65%
    04:00 +11°C° 0 mm 4 m/S 744 mmHg 66%
    05:00 +11°C° 0 mm 4 m/S 743 mmHg 67%
    06:00 +12°C° 0 mm 4 m/S 743 mmHg 69%
    07:00 +13°C° 0 mm 4 m/S 743 mmHg 71%
    08:00 +14°C° 0 mm 5 m/S 743 mmHg 72%
    09:00 +15°C° 0 mm 5 m/S 743 mmHg 69%
    10:00 +17°C° 0 mm 5 m/S 743 mmHg 66%
    11:00 +19°C° 0 mm 5 m/S 743 mmHg 63%
    12:00 +17°C° 1 mm 5 m/S 743 mmHg 69%
    13:00 +16°C° 1 mm 5 m/S 743 mmHg 76%
    14:00 +15°C° 1 mm 5 m/S 743 mmHg 82%
    15:00 +16°C° 0,1 mm 5 m/S 743 mmHg 77%
    16:00 +16°C° 0,1 mm 5 m/S 743 mmHg 71%
    17:00 +17°C° 0,1 mm 5 m/S 744 mmHg 65%
    18:00 +15°C° 0 mm 4 m/S 744 mmHg 68%
    19:00 +14°C° 0 mm 4 m/S 744 mmHg 70%
    20:00 +13°C° 0 mm 3 m/S 745 mmHg 72%
    21:00 +12°C° 0 mm 3 m/S 745 mmHg 72%
    22:00 +11°C° 0 mm 3 m/S 745 mmHg 73%
    23:00 +11°C° 0 mm 3 m/S 746 mmHg 73%

    25 April, Mittwoch

    Zeit Temperatur Niederschläge Wind Luftdruck Luftfeuchtigkeit
    00:00 +10°C° 0 mm 3 m/S 746 mmHg 74%
    01:00 +10°C° 0 mm 3 m/S 746 mmHg 76%
    02:00 +10°C° 0 mm 2 m/S 746 mmHg 77%
    03:00 +10°C° 0 mm 2 m/S 746 mmHg 78%
    04:00 +9°C° 0 mm 2 m/S 746 mmHg 79%
    05:00 +9°C° 0 mm 2 m/S 746 mmHg 80%
    06:00 +11°C° 0 mm 3 m/S 747 mmHg 75%
    07:00 +13°C° 0 mm 3 m/S 747 mmHg 70%
    08:00 +15°C° 0 mm 4 m/S 747 mmHg 65%
    09:00 +17°C° 0 mm 4 m/S 747 mmHg 61%
    10:00 +19°C° 0 mm 5 m/S 747 mmHg 56%
    11:00 +21°C° 0 mm 6 m/S 747 mmHg 51%
    12:00 +22°C° 0 mm 6 m/S 747 mmHg 50%
    13:00 +22°C° 0 mm 6 m/S 746 mmHg 48%
    14:00 +23°C° 0 mm 6 m/S 746 mmHg 47%
    15:00 +23°C° 0 mm 5 m/S 745 mmHg 48%
    16:00 +23°C° 0 mm 5 m/S 745 mmHg 50%
    17:00 +23°C° 0 mm 4 m/S 745 mmHg 52%
    18:00 +21°C° 0 mm 4 m/S 745 mmHg 57%
    19:00 +20°C° 0 mm 4 m/S 744 mmHg 62%
    20:00 +18°C° 0 mm 3 m/S 744 mmHg 66%
    21:00 +18°C° 0 mm 4 m/S 744 mmHg 68%
    22:00 +17°C° 0 mm 4 m/S 744 mmHg 69%
    23:00 +16°C° 0 mm 5 m/S 744 mmHg 71%

    26 April, Donnerstag

    Zeit Temperatur Niederschläge Wind Luftdruck Luftfeuchtigkeit
    00:00 +16°C° 0 mm 5 m/S 744 mmHg 72%
    01:00 +15°C° 0 mm 5 m/S 744 mmHg 74%
    02:00 +15°C° 0 mm 5 m/S 744 mmHg 75%
    03:00 +14°C° 0 mm 4 m/S 743 mmHg 76%
    04:00 +14°C° 0 mm 4 m/S 743 mmHg 78%
    05:00 +14°C° 0 mm 4 m/S 743 mmHg 79%
    06:00 +15°C° 0 mm 4 m/S 743 mmHg 73%
    07:00 +17°C° 0 mm 5 m/S 743 mmHg 67%
    08:00 +20°C° 0 mm 6 m/S 743 mmHg 60%
    09:00 +21°C° 0 mm 6 m/S 743 mmHg 56%
    10:00 +23°C° 0 mm 7 m/S 743 mmHg 51%
    11:00 +24°C° 0 mm 8 m/S 744 mmHg 46%
    12:00 +24°C° 0 mm 8 m/S 744 mmHg 47%
    13:00 +24°C° 0 mm 8 m/S 744 mmHg 47%
    14:00 +24°C° 0 mm 8 m/S 744 mmHg 47%
    15:00 +24°C° 0 mm 7 m/S 744 mmHg 49%
    16:00 +23°C° 0 mm 6 m/S 744 mmHg 51%
    17:00 +22°C° 0 mm 5 m/S 745 mmHg 52%
    18:00 +20°C° 0 mm 4 m/S 745 mmHg 57%
    19:00 +18°C° 0 mm 4 m/S 746 mmHg 62%
    20:00 +17°C° 0 mm 3 m/S 746 mmHg 67%
    21:00 +16°C° 0 mm 3 m/S 746 mmHg 68%
    22:00 +14°C° 0 mm 3 m/S 747 mmHg 69%
    23:00 +15°C° 0 mm 2 m/S 747 mmHg 70%
    Mehr zeigen